Location: Cosy Dell
(34.2789°N, 117.4537°W)
Time: 20:16:08
(UTC+00:00)

Cosmos 1892 - Pass Details

Date: 14 July 2020
Orbit: 505 x 524 km, 82.5° (Epoch: 13 August)

Event Time Altitude Azimuth Distance (km) Brightness Sun altitude
Exits shadow 04:31:17 26° 94° (E) 1,025 3.7 -16.0°
Maximum altitude 04:31:25 26° 91° (E) 1,023 3.8 -16.0°
Drops below altitude 10° 04:34:38 10° 33° (NNE) 1,738 5.5 -16.5°
Sets 04:37:00 0° 21° (NNE) 2,633 6.6 -16.8°
